Weather History for Sedalia, MO

Change the Weather History Date:

Monday, August 5, 2013

  Actual Average Record
Temperature  
Mean Temperature 79 °F 79 °F  
Max Temperature 87 °F 90 °F 101 °F (1956)
Min Temperature 71 °F 68 °F 51 °F (1974)
Degree Days  
Heating Degree Days 0 0  
Month to date heating degree days 0 0  
Since 1 June heating degree days 9 6  
Since 1 July heating degree days 0 0  
Cooling Degree Days 14 14  
Month to date cooling degree days 62 70  
Year to date cooling degree days 894 950  
Since 1 June cooling degree days 746 811  
Growing Degree Days 28 (Base 50)    
Moisture  
Dew Point 72 °F    
Average Humidity 80    
Maximum Humidity 94    
Minimum Humidity 65    
Precipitation  
Precipitation T in 0.09 in 2.58 in (1944)
Month to date precipitation 0.05 0.41  
Year to date precipitation 27.06 24.86  
Sea Level Pressure  
Sea Level Pressure 29.95 in    
Wind  
Wind Speed 5 mph (SSE)    
Max Wind Speed 14 mph    
Max Gust Speed 16 mph    
Visibility 9 miles    
Events Rain    
T = Trace of Precipitation, MM = Missing Value Source: NWS Daily Summary

Daily Weather History Graph

Daily Weather History Graph

Search for Another Location

Airport:

Trip Planner

Search our weather history database for the weather conditions in past years. The results will help you decide how hot, cold, wet, or windy it might be!

Date:

Astronomy

Aug. 05, 2013 Rise Set
Actual Time 6:17 AM CDT 8:18 PM CDT
Civil Twilight 5:48 AM CDT 8:47 PM CDT
Nautical Twilight 5:13 AM CDT 9:23 PM CDT
Astronomical Twilight 4:34 AM CDT 10:01 PM CDT
Moon 5:13 AM CDT (8/5) 7:20 PM CDT (8/5)
Length of Visible Light 14h 59m
Length of Day
14h 00m
Waning Crescent, 1% of the Moon is Illuminated
Aug 5
Waning Crescent
Aug 6
New
Aug 14
First Quarter
Aug 20
Full
Aug 28
Last Quarter

Hourly Weather History & Observations

Time (CDT) Temp. Heat Index Dew Point Humidity Pressure Visibility Wind Dir Wind Speed Gust Speed Precip Events Conditions
12:53 AM 71.1 °F - 69.1 °F 93% 30.06 in 8.0 mi SE 5.8 mph - 0.00 in Rain Light Rain
1:53 AM 71.1 °F - 69.1 °F 93% 30.04 in 9.0 mi SE 5.8 mph - 0.00 in   Overcast
2:53 AM 71.1 °F - 69.1 °F 93% 30.02 in 9.0 mi SSE 5.8 mph - 0.00 in   Overcast
3:05 AM 71.6 °F - 69.8 °F 94% 30.04 in 8.0 mi SSE 6.9 mph - N/A   Overcast
3:53 AM 71.1 °F - 69.1 °F 93% 30.00 in 9.0 mi SSE 5.8 mph - N/A   Overcast
4:27 AM 71.6 °F - 69.8 °F 94% 30.01 in 9.0 mi SSE 4.6 mph - N/A   Overcast
4:36 AM 71.6 °F - 69.8 °F 94% 30.01 in 8.0 mi SSE 4.6 mph - N/A   Overcast
4:53 AM 71.1 °F - 69.1 °F 93% 29.99 in 8.0 mi South 4.6 mph - N/A   Overcast
5:07 AM 71.6 °F - 69.8 °F 94% 30.01 in 9.0 mi South 5.8 mph - N/A   Overcast
5:53 AM 71.1 °F - 69.1 °F 93% 29.98 in 10.0 mi SSE 5.8 mph - N/A   Overcast
6:53 AM 71.1 °F - 69.1 °F 93% 29.98 in 7.0 mi SE 5.8 mph - N/A   Overcast
7:06 AM 71.6 °F - 69.8 °F 94% 30.00 in 8.0 mi SE 4.6 mph - N/A   Overcast
7:16 AM 71.6 °F - 69.8 °F 94% 30.00 in 9.0 mi SE 5.8 mph - N/A   Overcast
7:53 AM 72.0 °F - 70.0 °F 93% 29.98 in 10.0 mi SSE 6.9 mph - N/A   Overcast
8:53 AM 75.0 °F - 71.1 °F 87% 29.97 in 10.0 mi SSE 11.5 mph - N/A   Overcast
9:05 AM 73.4 °F - 71.6 °F 94% 29.98 in 10.0 mi SSE 8.1 mph - N/A   Overcast
9:14 AM 73.4 °F - 71.6 °F 94% 29.98 in 10.0 mi South 10.4 mph - N/A   Overcast
9:53 AM 77.0 °F - 71.1 °F 82% 29.95 in 10.0 mi SSE 10.4 mph - N/A   Overcast
10:21 AM 78.8 °F - 71.6 °F 78% 29.97 in 10.0 mi South 11.5 mph - N/A   Overcast
10:53 AM 81.0 °F 85.8 °F 73.0 °F 77% 29.94 in 10.0 mi South 11.5 mph - N/A   Mostly Cloudy
11:03 AM 80.6 °F 85.4 °F 73.4 °F 79% 29.96 in 10.0 mi South 10.4 mph - N/A   Scattered Clouds
11:10 AM 78.8 °F - 71.6 °F 78% 29.96 in 10.0 mi South 9.2 mph - N/A   Mostly Cloudy
11:53 AM 82.0 °F 87.4 °F 73.0 °F 74% 29.94 in 10.0 mi SSW 5.8 mph - N/A   Overcast
12:53 PM 81.0 °F 85.8 °F 73.0 °F 77% 29.93 in 10.0 mi South 9.2 mph - N/A   Overcast
1:53 PM 84.0 °F 91.2 °F 73.9 °F 72% 29.93 in 10.0 mi West 5.8 mph - N/A   Overcast
2:01 PM 84.2 °F 90.9 °F 73.4 °F 70% 29.95 in 10.0 mi Variable 5.8 mph - N/A   Overcast
2:53 PM 84.9 °F 92.1 °F 73.9 °F 69% 29.91 in 10.0 mi Calm Calm - N/A   Overcast
3:19 PM 84.2 °F 90.9 °F 73.4 °F 70% 29.93 in 10.0 mi WSW 3.5 mph - N/A   Overcast
3:33 PM 84.2 °F 90.9 °F 73.4 °F 70% 29.92 in 10.0 mi SSW 4.6 mph - N/A   Overcast
3:53 PM 84.0 °F 90.2 °F 73.0 °F 69% 29.89 in 10.0 mi Calm Calm - N/A   Overcast
4:42 PM 84.2 °F 90.9 °F 73.4 °F 70% 29.89 in 10.0 mi Calm Calm - N/A   Overcast
4:53 PM 84.9 °F 92.1 °F 73.9 °F 69% 29.86 in 10.0 mi South 3.5 mph - N/A   Overcast
5:53 PM 86.0 °F 93.0 °F 73.0 °F 65% 29.85 in 10.0 mi Calm Calm - N/A   Scattered Clouds
6:53 PM 84.9 °F 92.1 °F 73.9 °F 69% 29.84 in 10.0 mi East 4.6 mph - N/A   Scattered Clouds
7:53 PM 82.0 °F 87.9 °F 73.9 °F 76% 29.84 in 10.0 mi Calm Calm - N/A   Clear
8:53 PM 78.1 °F - 73.9 °F 87% 29.84 in 10.0 mi South 5.8 mph - N/A   Clear
9:53 PM 78.1 °F - 75.0 °F 90% 29.86 in 9.0 mi NNE 4.6 mph - N/A   Clear
10:53 PM 75.9 °F - 73.0 °F 91% 29.86 in 8.0 mi Calm Calm - N/A   Clear
11:53 PM 75.9 °F - 73.9 °F 94% 29.88 in 6.0 mi Calm Calm - N/A   Mostly Cloudy